N759U KBZN-KCPR

Flight info

Callsign N759U
Flight time N/A
Altitude 33000
Route BOBKT5 BOY
Aircraft STAR/L-SDFGRWY/S

Departure

Time 2026-04-28 04:21
Airport Bozeman Yellowstone International Airport (KBZN)

Arrival

Time N/A
Airport Casper-Natrona County International Airport (KCPR)
Time Latitude Longitude Altitude Speed Heading
2026-04-28 03:47 45.77398 -111.15271 4456 ft 0 kts 63°
2026-04-28 04:15 45.77399 -111.15271 4456 ft 0 kts 63°
2026-04-28 04:15 45.77399 -111.15270 4456 ft 0 kts 63°
2026-04-28 04:16 45.77401 -111.15263 4456 ft 6 kts 63°
2026-04-28 04:16 45.77439 -111.15250 4455 ft 0 kts 350°
2026-04-28 04:17 45.77440 -111.15250 4454 ft 3 kts 350°
2026-04-28 04:17 45.77489 -111.15261 4453 ft 17 kts 350°
2026-04-28 04:17 45.77610 -111.15394 4451 ft 23 kts 315°
2026-04-28 04:17 45.77748 -111.15585 4450 ft 25 kts 316°
2026-04-28 04:18 45.77816 -111.15679 4450 ft 20 kts 314°
2026-04-28 04:18 45.77941 -111.15865 4451 ft 30 kts 316°
2026-04-28 04:18 45.78089 -111.16058 4447 ft 28 kts 316°
2026-04-28 04:18 45.78230 -111.16255 4443 ft 33 kts 315°
2026-04-28 04:19 45.78395 -111.16485 4441 ft 33 kts 315°
2026-04-28 04:19 45.78559 -111.16712 4441 ft 32 kts 317°
2026-04-28 04:19 45.78634 -111.16809 4441 ft 20 kts 327°
2026-04-28 04:19 45.78768 -111.16701 4443 ft 19 kts 46°
2026-04-28 04:20 45.78771 -111.16591 4445 ft 11 kts 134°
2026-04-28 04:20 45.78767 -111.16585 4446 ft 0 kts 135°
2026-04-28 04:20 45.78718 -111.16516 4445 ft 31 kts 136°
2026-04-28 04:20 45.78455 -111.16150 4443 ft 75 kts 136°
2026-04-28 04:21 45.77969 -111.15474 4531 ft 112 kts 134°
2026-04-28 04:21 45.77371 -111.14583 4940 ft 134 kts 134°
2026-04-28 04:21 45.76703 -111.13494 5382 ft 159 kts 129°
2026-04-28 04:21 45.75918 -111.12332 5973 ft 163 kts 136°
2026-04-28 04:22 45.75097 -111.11240 7002 ft 158 kts 138°
2026-04-28 04:22 45.74306 -111.10150 7863 ft 158 kts 136°
2026-04-28 04:22 45.73533 -111.09026 8696 ft 159 kts 135°
2026-04-28 04:22 45.72756 -111.07885 9532 ft 162 kts 136°
2026-04-28 04:23 45.71958 -111.06742 10355 ft 163 kts 137°
2026-04-28 04:23 45.71145 -111.05592 11161 ft 164 kts 137°
2026-04-28 04:23 45.70332 -111.04426 11964 ft 167 kts 136°
2026-04-28 04:23 45.69515 -111.03247 12772 ft 170 kts 136°
2026-04-28 04:24 45.68671 -111.02037 13532 ft 173 kts 136°
2026-04-28 04:24 45.67808 -111.00806 14214 ft 176 kts 136°
2026-04-28 04:24 45.66941 -110.99561 14893 ft 177 kts 137°
2026-04-28 04:24 45.66231 -110.98111 15487 ft 186 kts 107°
2026-04-28 04:25 45.65990 -110.96178 15793 ft 211 kts 96°
2026-04-28 04:25 45.65856 -110.94092 16428 ft 216 kts 94°
2026-04-28 04:25 45.65752 -110.91913 17050 ft 220 kts 93°
2026-04-28 04:25 45.65591 -110.89726 17792 ft 222 kts 99°
2026-04-28 04:26 45.65339 -110.87550 18515 ft 222 kts 99°
2026-04-28 04:26 45.65138 -110.85376 19217 ft 219 kts 98°
2026-04-28 04:26 45.64937 -110.83216 19869 ft 220 kts 99°
2026-04-28 04:26 45.64688 -110.81067 20529 ft 220 kts 108°
2026-04-28 04:27 45.63888 -110.79277 21183 ft 213 kts 143°
2026-04-28 04:27 45.62673 -110.78083 21844 ft 212 kts 153°
2026-04-28 04:27 45.61405 -110.77021 22533 ft 211 kts 155°
2026-04-28 04:27 45.60151 -110.75905 23208 ft 213 kts 151°
2026-04-28 04:28 45.58941 -110.74721 23829 ft 214 kts 151°
2026-04-28 04:28 45.57700 -110.73571 24395 ft 213 kts 153°
2026-04-28 04:28 45.56450 -110.72423 24937 ft 214 kts 152°
2026-04-28 04:28 45.55208 -110.71253 25521 ft 214 kts 152°
2026-04-28 04:29 45.53963 -110.70087 26081 ft 214 kts 152°
2026-04-28 04:29 45.52710 -110.68927 26644 ft 215 kts 152°
2026-04-28 04:29 45.51455 -110.67758 27205 ft 215 kts 152°
2026-04-28 04:29 45.50199 -110.66585 27722 ft 216 kts 152°
2026-04-28 04:30 45.48941 -110.65416 28271 ft 216 kts 152°
2026-04-28 04:30 45.47683 -110.64242 28782 ft 216 kts 153°
2026-04-28 04:30 45.46426 -110.63077 29323 ft 215 kts 153°
2026-04-28 04:30 45.45169 -110.61905 29803 ft 216 kts 154°
2026-04-28 04:31 45.43909 -110.60746 30299 ft 215 kts 154°
2026-04-28 04:31 45.42647 -110.59580 30676 ft 217 kts 153°
2026-04-28 04:31 45.41378 -110.58393 31080 ft 218 kts 153°
2026-04-28 04:31 45.40106 -110.57214 31450 ft 219 kts 153°
2026-04-28 04:32 45.38820 -110.56028 31792 ft 221 kts 153°
2026-04-28 04:32 45.37540 -110.54841 32117 ft 224 kts 152°
2026-04-28 04:32 45.36227 -110.53623 32433 ft 226 kts 152°
2026-04-28 04:32 45.34900 -110.52397 32742 ft 228 kts 152°
2026-04-28 04:33 45.33551 -110.51152 32938 ft 235 kts 152°
2026-04-28 04:33 45.32148 -110.49858 33025 ft 246 kts 151°
2026-04-28 04:33 45.30683 -110.48502 33050 ft 257 kts 152°
2026-04-28 04:33 45.29156 -110.47092 33077 ft 267 kts 152°
2026-04-28 04:34 45.27570 -110.45635 33084 ft 274 kts 152°
2026-04-28 04:34 45.25949 -110.44137 33094 ft 282 kts 151°
2026-04-28 04:34 45.24286 -110.42606 33096 ft 288 kts 151°
2026-04-28 04:34 45.22582 -110.41040 33098 ft 292 kts 151°
2026-04-28 04:35 45.20888 -110.39482 33093 ft 297 kts 151°
2026-04-28 04:35 45.19142 -110.37878 33101 ft 300 kts 151°
2026-04-28 04:35 45.17383 -110.36262 33102 ft 302 kts 151°
2026-04-28 04:36 45.13832 -110.33004 33105 ft 306 kts 151°
2026-04-28 04:36 45.10234 -110.29716 33087 ft 309 kts 152°
2026-04-28 04:37 45.06606 -110.26397 33098 ft 311 kts 152°
2026-04-28 04:37 45.02952 -110.23064 33096 ft 313 kts 152°
2026-04-28 04:38 44.99317 -110.19750 33095 ft 313 kts 152°
2026-04-28 04:38 44.95643 -110.16408 33094 ft 314 kts 152°
2026-04-28 04:39 44.92727 -110.13237 33093 ft 319 kts 140°
2026-04-28 04:39 44.89515 -110.08998 33093 ft 318 kts 142°
2026-04-28 04:40 44.86260 -110.04763 33095 ft 318 kts 142°